DW5833 Weather Reports


time (UTC)temp
F
wind
direction
speed
knots
gust
knots
rain 1hr
in
rain 24hr
in
rain mn
in
humidity
%
barometer
mb
20260507060002 47 319 0.0 2.6 0.00 0.31 0.00 94 1005.4
20260507054501 47 321 1.7 4.3 0.00 0.31 0.00 94 1005.3
20260507053100 47 309 0.9 3.5 0.00 0.31 0.00 95 1005.3
20260507051602 47 283 0.0 3.5 0.00 0.31 0.00 95 1005.2
20260507050101 47 330 0.9 4.3 0.00 0.31 0.00 95 1005.0
20260507044556 47 321 0.9 2.6 0.00 0.31 0.00 95 1004.9
20260507043055 48 328 0.9 2.6 0.00 0.31 0.00 95 1005.1
20260507041551 48 345 0.9 3.5 0.00 0.31 0.00 95 1005.2
20260507040047 48 323 1.7 3.5 0.05 0.31 0.00 95 1005.2
20260507034545 49 323 0.0 1.7 0.07 0.31 0.31 95 1004.9
20260507033045 49 276 0.0 2.6 0.08 0.31 0.31 95 1005.0
20260507031541 50 320 0.9 5.2 0.09 0.31 0.31 95 1005.0
20260507030041 50 316 1.7 6.1 0.04 0.26 0.26 94 1005.1
20260507024536 52 349 1.7 6.1 0.03 0.24 0.24 95 1004.7
20260507023030 53 326 1.7 4.3 0.09 0.23 0.23 95 1004.6
20260507021528 54 324 0.9 5.2 0.09 0.22 0.22 95 1004.3
20260507020031 55 314 0.9 5.2 0.09 0.22 0.22 95 1003.9
20260507014519 57 321 0.0 3.5 0.08 0.21 0.21 96 1004.0
20260507013033 58 236 0.0 0.9 0.01 0.14 0.14 96 1003.6
20260507011516 58 240 0.0 1.7 0.00 0.13 0.13 96 1003.4
20260507010015 58 236 0.0 1.7 0.00 0.13 0.13 96 1003.5
20260507004514 58 229 0.0 1.7 0.00 0.13 0.13 96 1003.4
20260507003014 58 203 0.0 1.7 0.00 0.13 0.13 96 1003.3
20260507001513 58 219 0.0 1.7 0.00 0.13 0.13 96 1003.3
20260507000015 58 169 0.0 2.6 0.00 0.13 0.13 96 1003.2
20260506234520 58 204 0.0 2.6 0.00 0.13 0.13 96 1003.0
20260506233013 58 233 0.0 1.7 0.00 0.13 0.13 96 1003.0
20260506231510 58 238 0.0 2.6 0.00 0.13 0.13 96 1003.1
20260506230009 58 259 0.0 2.6 0.00 0.13 0.13 96 1003.0
20260506224509 58 226 0.0 3.5 0.00 0.13 0.13 96 1003.0
20260506223007 58 214 0.9 3.5 0.00 0.13 0.13 96 1003.1
20260506221504 58 288 0.9 2.6 0.00 0.13 0.13 96 1003.2
20260506220010 58 153 0.9 5.2 0.00 0.13 0.13 96 1003.4
20260506214504 59 188 0.9 3.5 0.01 0.13 0.13 96 1003.3
20260506213002 59 237 0.9 3.5 0.01 0.13 0.13 96 1003.5
20260506211610 59 252 0.9 4.3 0.01 0.13 0.13 96 1003.5
20260506210100 60 243 0.9 4.3 0.02 0.13 0.13 96 1003.5
20260506204600 60 168 0.0 3.5 0.03 0.12 0.12 96 1003.5
20260506203057 60 238 0.0 2.6 0.04 0.12 0.12 96 1003.7
20260506201556 60 245 0.0 2.6 0.04 0.12 0.12 96 1003.9
20260506200055 60 242 0.9 4.3 0.03 0.11 0.11 96 1003.9
20260506194555 60 182 0.0 1.7 0.02 0.09 0.09 96 1004.2
20260506193054 60 237 0.0 0.9 0.01 0.08 0.08 96 1004.1
20260506191553 60 214 0.0 0.9 0.03 0.08 0.08 95 1003.9
20260506190052 60 160 0.0 0.9 0.04 0.08 0.08 95 1004.2
20260506184547 60 225 0.0 0.9 0.06 0.07 0.07 94 1004.6
20260506183045 61 186 0.0 0.9 0.06 0.06 0.06 91 1005.0
20260506181544 61 162 0.0 1.7 0.05 0.05 0.05 89 1005.0
20260506180044 62 245 0.0 4.3 0.04 0.04 0.04 86 1005.2
20260506174546 64 260 0.0 1.7 0.01 0.01 0.01 81 1005.4
20260506173046 65 239 0.0 5.2 0.00 0.00 0.00 75 1005.1
20260506171549 67 225 0.0 3.5 0.00 0.00 0.00 71 1004.9
20260506170040 67 261 0.9 2.6 0.00 0.00 0.00 69 1004.9
20260506164551 67 188 0.9 2.6 0.00 0.00 0.00 68 1005.0
20260506163040 68 129 0.9 4.3 0.00 0.00 0.00 68 1005.1
20260506161534 67 204 0.9 3.5 0.00 0.00 0.00 70 1005.4
20260506160030 67 233 0.9 4.3 0.00 0.00 0.00 71 1005.8
20260506154528 66 243 0.9 4.3 0.00 0.00 0.00 72 1006.1
20260506153027 66 166 0.9 2.6 0.00 0.00 0.00 72 1006.2
20260506151525 66 146 0.9 3.5 0.00 0.00 0.00 73 1006.5
20260506150024 65 252 0.9 2.6 0.00 0.00 0.00 74 1006.4
20260506144530 65 265 0.9 3.5 0.00 0.00 0.00 73 1006.6
20260506143032 66 148 1.7 3.5 0.00 0.00 0.00 74 1006.3
20260506141518 64 158 0.9 3.5 0.00 0.00 0.00 77 1006.4
20260506140015 63 186 0.0 2.6 0.00 0.00 0.00 79 1006.3
20260506134513 62 238 0.0 3.5 0.00 0.00 0.00 80 1006.4
20260506133014 62 182 0.0 2.6 0.00 0.00 0.00 80 1006.6
20260506131516 61 240 0.0 2.6 0.00 0.00 0.00 80 1006.8
20260506130015 61 197 0.0 2.6 0.00 0.00 0.00 80 1006.7
20260506124508 61 245 0.0 2.6 0.00 0.00 0.00 81 1006.8
20260506123009 60 255 0.0 2.6 0.00 0.00 0.00 81 1006.8
20260506121508 60 154 0.0 2.6 0.00 0.00 0.00 81 1006.8
20260506120007 60 184 0.9 2.6 0.00 0.00 0.00 82 1006.9
20260506114505 59 190 0.9 2.6 0.00 0.00 0.00 83 1007.0
20260506113008 59 189 0.0 1.7 0.00 0.00 0.00 83 1007.2
20260506111504 58 219 0.0 1.7 0.00 0.00 0.00 84 1007.2
20260506110004 58 205 0.0 0.0 0.00 0.00 0.00 85 1007.3
20260506104502 57 229 0.0 0.0 0.00 0.00 0.00 85 1007.5
20260506103003 57 229 0.0 0.0 0.00 0.00 0.00 84 1007.4
20260506101559 57 229 0.0 0.9 0.00 0.00 0.00 84 1007.2
20260506100059 57 228 0.0 0.9 0.00 0.00 0.00 83 1007.1
20260506094558 57 216 0.0 0.9 0.00 0.00 0.00 82 1007.3
20260506093057 57 225 0.0 0.9 0.00 0.00 0.00 81 1007.2
20260506091556 58 228 0.0 1.7 0.00 0.00 0.00 80 1007.1
20260506090054 58 243 0.0 1.7 0.00 0.00 0.00 79 1007.2
20260506084554 58 233 0.0 0.9 0.00 0.00 0.00 79 1007.2
20260506083054 57 231 0.0 0.0 0.00 0.00 0.00 79 1007.3
20260506081553 57 229 0.0 0.0 0.00 0.00 0.00 79 1007.2
20260506073053 58 204 0.0 0.0 0.00 0.00 0.00 77 1007.1
20260506071550 59 204 0.0 0.0 0.00 0.00 0.00 74 1007.1
20260506061537 60 252 0.0 1.7 0.00 0.00 0.00 71 1006.6